Theta_e
315 315 316 323 330 333 336 335 331 332 333 328 327 330 335 343 346 351 351 351 354 356 358 350 348 345 342 339 338 336 333 334 337 338 333 329 324 323 325 327 331 339 337 337 336 335 329 323 323
315 317 322 325 330 335 336 333 332 332 329 326 327 329 337 350 338 343 355 354 354 358 358 349 347 344 341 338 337 335 332 330 334 337 334 330 327 322 325 327 330 336 336 335 332 328 325 323 322
315 316 324 325 329 331 333 332 331 328 327 326 327 326 335 336 337 344 351 356 355 359 356 353 346 343 341 338 336 334 331 328 327 335 332 329 330 323 325 327 331 332 332 330 330 329 324 323 323
322 322 319 324 328 329 330 330 327 327 326 325 324 328 333 337 339 346 357 356 356 359 357 351 346 343 341 338 335 333 330 326 325 330 328 327 331 324 324 327 330 329 331 331 330 326 323 323 323
321 321 324 326 327 326 326 324 324 326 325 326 324 327 327 337 337 344 358 357 356 358 357 348 345 343 341 338 336 333 329 324 322 326 328 327 330 327 323 327 329 328 328 327 327 323 323 323 324
323 322 323 327 327 324 324 324 324 324 324 325 324 324 328 325 337 342 356 358 356 356 356 351 344 343 340 338 337 334 330 324 320 323 326 326 330 328 322 327 329 329 328 328 328 324 323 324 324
323 324 323 324 323 323 323 322 323 323 323 324 321 324 325 323 335 341 350 359 357 356 355 356 345 343 340 338 337 334 331 325 319 321 323 326 329 328 322 325 327 329 329 328 325 323 323 323 328
321 323 323 323 323 323 323 321 320 320 321 320 320 324 324 321 326 339 344 356 358 357 356 355 352 345 341 338 337 334 332 328 320 321 322 326 329 328 323 324 327 328 327 330 322 322 322 323 324
319 322 322 323 323 324 321 321 320 318 319 319 319 320 320 319 320 329 338 346 358 357 356 355 354 351 348 346 338 335 333 330 324 321 321 327 330 329 324 324 327 328 328 327 322 322 322 323 323
319 320 321 322 321 321 319 318 318 318 319 319 319 319 319 319 319 320 324 337 346 358 357 356 355 353 350 347 345 336 334 331 327 322 321 328 339 339 340 337 326 328 332 324 324 322 321 322 330
318 318 319 318 317 316 317 317 317 317 319 319 319 318 318 318 318 319 320 321 335 344 357 355 356 354 351 348 348 344 344 342 337 333 326 334 341 342 341 344 332 331 332 325 323 321 321 328 331
317 317 317 317 316 315 317 316 316 317 317 317 317 317 317 317 318 318 319 319 320 329 343 354 356 355 353 350 348 346 344 344 344 343 338 340 342 344 344 343 343 341 337 335 335 332 331 333 333
316 316 315 315 315 315 314 315 315 315 315 315 315 315 316 316 317 317 318 318 319 320 325 344 355 355 354 352 349 348 346 345 345 345 343 340 341 343 343 343 341 340 338 337 336 334 334 334 337
314 314 314 314 314 314 315 315 315 315 315 315 316 316 316 316 317 317 317 318 318 319 320 326 345 348 351 351 351 350 348 345 345 345 344 340 340 342 342 343 342 340 338 336 335 333 334 337 339
314 315 316 316 315 315 315 315 317 316 315 315 316 316 316 316 316 316 317 317 318 318 319 316 321 344 348 347 352 351 349 347 346 344 344 339 336 342 336 333 341 339 339 337 337 333 334 339 341
315 315 318 317 316 315 315 317 318 316 316 317 317 316 316 316 316 316 316 317 317 318 319 319 318 324 344 348 350 352 351 349 347 345 345 338 337 339 330 337 339 339 339 338 336 333 333 340 342
316 317 317 317 315 316 316 317 318 316 316 317 317 316 317 317 316 317 317 317 317 318 319 315 315 316 335 347 348 350 350 351 349 347 345 344 335 335 332 338 339 340 338 338 335 334 336 340 342
316 316 317 317 318 318 318 318 319 318 317 317 318 317 316 316 317 317 317 318 318 318 318 314 314 315 329 343 345 348 348 352 352 349 346 345 339 334 331 337 337 333 333 337 336 335 337 341 342
314 315 316 317 318 317 319 319 319 319 318 319 318 318 318 318 318 317 317 317 318 317 318 314 314 315 319 334 343 353 347 353 352 352 349 347 343 337 335 333 329 327 336 336 334 335 341 343 345
314 315 317 318 318 318 319 320 321 321 320 319 319 319 319 319 318 318 317 317 317 318 318 320 321 314 314 329 339 342 345 352 351 349 350 348 346 340 337 334 334 328 334 325 333 333 338 343 345
317 317 318 318 318 319 320 321 321 321 320 319 318 318 318 318 318 317 318 319 319 319 319 320 321 321 315 318 337 343 347 347 346 345 346 347 346 344 341 338 336 330 330 332 328 331 337 341 346
318 317 317 318 320 321 320 322 322 321 320 320 319 319 318 317 318 318 319 318 319 318 318 318 320 317 317 320 331 339 341 340 340 341 344 347 346 344 344 341 336 332 326 329 331 338 335 340 344
318 317 318 318 320 320 321 322 322 321 320 320 319 318 317 317 317 318 319 319 320 321 322 322 321 314 315 333 330 338 340 339 341 343 344 340 346 346 344 343 339 334 329 332 336 342 334 343 343
316 317 319 320 320 322 322 321 321 321 320 319 319 318 317 317 317 318 319 319 320 320 321 323 324 324 320 330 338 340 340 341 342 344 343 342 344 343 343 342 342 336 331 326 325 341 337 343 346
317 320 324 324 323 324 320 320 321 320 319 318 318 317 317 317 318 318 319 319 319 319 320 320 322 324 325 329 335 339 340 342 342 345 343 343 345 345 345 341 339 340 332 334 332 339 343 342 342
317 318 323 325 323 322 320 320 322 318 317 316 316 318 318 318 318 318 317 317 318 318 318 318 319 320 322 325 327 337 338 342 341 344 343 345 343 343 345 343 341 339 339 332 338 343 342 344 342
318 319 318 319 320 322 321 320 320 320 318 317 317 317 317 317 317 317 316 316 316 316 317 317 317 318 319 321 325 322 333 337 341 341 343 343 344 344 344 344 342 341 341 341 339 343 344 343 341
316 317 320 320 324 324 321 321 321 320 319 318 318 317 316 316 315 314 314 315 315 314 315 315 316 316 317 319 320 323 324 329 335 340 342 344 346 344 345 343 342 342 342 342 341 343 343 342 341
317 318 317 319 320 323 323 320 320 319 319 318 317 316 315 314 313 312 312 312 312 312 313 314 314 315 316 316 318 320 323 323 328 335 339 341 345 344 343 344 343 343 342 341 338 331 342 342 341
317 318 318 324 321 323 323 322 318 317 317 316 315 314 313 311 310 310 309 309 310 310 310 312 313 314 314 315 316 317 321 324 325 331 334 337 340 342 341 342 343 343 341 339 335 330 341 340 337
Wind_Speed
5 4 3 4 7 5 4 6 3 1 0 8 12 5 9 2 10 5 13 6 4 16 21 26 24 22 20 20 19 18 16 16 16 14 14 16 16 19 19 18 17 16 15 14 13 12 11 11 13
2 1 2 5 8 9 6 6 8 3 7 11 8 7 2 14 13 7 9 8 9 18 21 27 25 23 21 20 19 18 17 16 16 16 16 16 17 19 19 18 16 15 14 13 13 12 11 13 14
0 4 7 4 9 11 8 5 5 4 8 9 6 5 6 8 13 11 15 4 10 18 22 25 26 24 22 21 20 18 17 17 17 18 17 18 17 18 19 18 16 14 13 13 12 11 12 13 15
1 3 6 9 15 4 6 4 1 3 4 3 8 3 5 10 11 15 10 2 13 16 20 25 27 25 23 21 20 18 17 17 18 19 18 18 18 18 20 18 16 14 13 12 12 11 11 13 15
2 5 9 13 14 2 4 2 3 5 3 6 8 3 2 5 12 14 8 3 11 15 19 24 28 26 23 21 20 18 17 17 18 19 19 19 19 19 20 19 16 14 12 11 11 11 11 13 15
7 5 9 15 14 5 6 3 5 4 4 6 6 10 2 6 12 13 7 2 9 15 18 21 28 27 24 22 20 19 17 17 18 20 19 19 19 19 20 19 16 14 12 11 10 10 11 12 14
11 7 13 14 8 8 4 3 2 5 8 4 10 8 3 9 11 10 8 1 9 14 17 18 28 27 25 23 21 19 18 17 18 19 20 20 20 20 20 19 17 15 13 12 11 11 11 12 13
4 4 9 10 11 11 5 4 4 8 8 9 3 2 5 13 12 8 7 1 5 13 17 17 20 26 26 25 23 20 18 18 18 19 20 21 21 21 21 20 18 16 14 13 12 11 11 11 12
2 6 11 13 9 3 3 6 4 8 14 9 10 11 9 9 11 8 6 4 4 11 15 18 20 21 21 19 25 23 21 19 18 19 21 21 21 21 22 21 20 17 16 14 13 13 12 11 11
7 8 8 6 4 7 6 9 12 11 13 14 12 10 10 11 11 8 6 4 3 9 15 18 20 21 21 20 21 25 24 23 22 22 23 23 19 19 17 19 20 19 18 16 15 14 13 12 9
1 8 4 5 3 7 12 13 10 14 16 14 13 14 14 15 12 11 9 7 6 6 12 18 20 22 22 22 20 21 19 19 21 22 24 22 18 17 18 16 21 20 19 17 16 16 14 12 11
8 2 5 3 9 13 14 16 16 18 21 19 18 19 18 17 14 13 12 10 9 7 9 15 21 22 24 23 22 21 22 22 21 22 24 22 20 18 19 16 16 17 16 14 14 13 12 13 13
8 3 6 10 14 17 18 19 20 21 19 21 19 19 19 17 15 14 12 11 10 9 9 13 17 22 24 27 24 24 25 25 23 23 25 23 22 21 19 18 17 16 16 16 15 14 14 14 13
1 9 13 14 13 11 13 17 14 13 11 11 13 15 16 17 18 18 16 15 13 11 10 12 17 21 22 26 27 26 26 26 25 24 24 28 23 22 21 20 19 17 17 16 15 15 14 14 13
7 12 10 9 6 10 8 17 21 18 16 18 17 19 19 21 21 22 20 19 17 15 13 14 21 21 24 26 28 28 27 26 27 27 28 30 29 26 25 24 20 18 17 18 17 16 16 15 14
10 7 7 10 10 8 5 17 14 8 13 22 22 25 25 25 26 26 26 25 22 19 18 17 16 20 25 26 26 28 28 27 27 27 27 32 31 29 27 23 22 20 19 18 16 16 16 16 15
8 7 11 8 11 8 12 19 14 15 22 25 29 29 29 30 29 29 28 28 27 25 23 24 22 23 24 26 26 28 30 31 29 28 28 30 33 32 29 23 22 25 22 19 17 17 17 18 16
11 14 12 14 8 17 20 24 19 19 21 26 28 29 31 33 33 30 29 28 27 26 26 30 26 22 25 26 27 29 31 34 29 30 29 29 33 36 35 25 23 26 25 20 19 18 18 17 17
12 15 16 16 13 15 21 26 23 23 24 25 28 29 31 31 30 26 27 26 26 25 25 30 30 23 20 26 30 31 34 36 32 30 31 31 33 34 33 31 30 29 24 23 25 21 19 18 17
14 16 17 15 10 16 21 31 26 20 14 18 21 25 26 23 22 20 20 21 23 24 23 22 24 28 23 23 28 31 31 35 31 29 32 31 29 35 35 33 30 30 26 29 27 26 22 21 20
14 16 17 20 18 17 15 21 3 14 11 12 10 12 15 17 16 17 17 17 20 21 22 23 22 20 25 21 23 24 28 30 29 36 36 36 34 31 33 32 31 32 30 28 32 29 27 23 19
17 10 12 17 14 12 12 13 18 8 8 7 10 12 14 14 11 12 11 12 11 12 16 20 21 23 22 21 22 26 26 30 30 29 36 36 34 33 30 31 33 34 34 31 30 30 28 30 23
11 10 14 17 18 20 18 10 6 7 6 6 8 9 3 3 7 9 9 10 9 8 8 10 14 20 22 18 21 23 25 24 22 27 33 33 33 36 33 30 32 35 37 31 30 32 33 31 28
12 15 19 21 14 11 14 12 10 4 7 10 14 12 14 15 11 10 10 10 9 9 8 8 9 10 14 18 19 23 23 23 23 26 29 31 32 32 39 35 31 36 38 39 38 30 34 31 25
6 13 7 5 8 9 6 10 16 17 9 12 11 14 12 12 12 10 10 11 11 10 11 10 10 10 9 10 17 20 23 21 23 24 26 26 28 30 40 44 43 36 39 34 35 35 30 31 28
15 8 6 7 9 15 21 9 2 3 11 12 10 10 9 6 7 8 8 11 12 14 14 14 13 13 12 10 10 18 21 21 22 22 26 25 28 26 35 41 40 40 35 37 31 32 32 28 28
4 7 8 12 18 16 11 15 16 16 7 10 9 8 11 11 11 12 13 15 16 18 18 19 18 16 15 14 11 13 15 24 21 21 22 28 24 23 29 34 39 36 32 30 31 29 29 31 32
13 7 4 4 5 13 12 19 11 11 14 14 14 17 18 19 23 23 22 24 24 25 25 23 23 22 18 16 15 13 12 14 23 27 23 24 23 25 30 32 31 34 32 29 30 32 32 33 31
5 8 7 6 8 7 12 8 18 22 16 15 14 24 28 32 35 37 38 33 31 30 29 28 27 25 22 19 16 17 14 15 14 21 29 25 24 23 27 29 31 31 30 31 35 37 36 33 32
16 17 14 6 10 7 10 20 8 1 12 19 24 26 31 34 36 37 38 39 36 33 31 30 27 26 23 21 19 17 18 16 15 18 22 29 25 26 24 26 25 33 34 32 36 38 37 35 32
Wind_Direction
296 302 308 279 252 239 210 150 326 226 2 356 339 323 346 300 23 16 338 337 182 175 181 182 181 183 182 178 178 177 178 179 177 170 165 169 168 166 163 161 160 160 159 162 166 169 167 160 160
291 280 260 268 261 238 189 130 211 324 346 336 342 335 28 87 16 331 350 352 180 178 182 185 185 186 185 183 182 182 185 186 184 181 177 176 174 171 169 167 168 169 171 171 173 172 168 162 162
151 169 256 253 254 258 272 152 116 293 318 350 345 30 24 356 353 344 326 282 177 178 185 187 189 189 189 188 188 188 193 191 190 187 184 181 179 176 174 174 172 174 178 178 178 177 170 165 163
188 215 233 246 253 219 331 119 133 269 259 336 343 90 104 39 3 348 343 166 174 176 179 196 191 191 194 194 192 196 199 199 196 193 189 185 184 182 180 179 176 177 178 181 185 182 173 170 168
202 243 250 249 259 1 210 267 283 273 290 310 335 24 354 10 9 6 7 133 178 180 180 196 192 193 197 198 197 203 206 203 200 197 193 189 188 187 185 185 182 181 181 186 191 185 180 176 174
221 271 245 256 248 179 228 240 265 250 264 294 320 315 66 9 5 10 17 145 185 185 184 197 194 194 199 202 204 207 209 208 204 200 196 194 193 191 191 191 190 190 192 196 202 193 190 186 185
262 242 260 276 277 228 194 287 276 306 275 262 323 291 327 357 356 6 12 71 185 192 189 193 197 197 199 205 210 210 211 210 208 205 201 198 196 195 196 197 197 199 204 204 208 202 198 196 192
257 264 254 244 256 254 106 299 290 300 295 313 288 277 310 330 340 351 3 30 195 194 194 194 191 200 202 205 208 211 213 212 210 208 206 202 199 200 201 201 204 207 209 210 212 208 206 203 201
194 246 247 247 250 225 145 295 266 299 282 281 289 285 297 315 333 329 333 354 210 203 200 195 198 198 196 202 210 208 209 212 210 210 207 205 204 204 205 204 208 209 209 211 212 213 211 208 208
240 246 272 23 340 284 295 287 303 294 281 276 274 275 287 302 306 303 308 300 262 224 212 206 207 200 197 202 207 210 211 207 207 207 208 206 200 204 204 211 212 209 211 212 214 216 213 209 213
185 271 89 200 292 292 291 281 282 282 277 275 290 285 291 295 290 285 282 279 269 248 225 213 216 208 203 204 205 200 204 204 205 206 209 202 203 205 199 213 211 211 214 214 216 217 214 210 206
250 236 255 267 283 287 280 290 271 265 273 278 277 280 287 286 285 280 276 272 272 254 239 227 218 217 211 209 210 206 204 205 205 206 209 200 203 206 202 207 208 207 214 205 212 213 208 212 207
253 181 247 268 276 279 285 273 275 275 268 270 274 274 273 274 274 274 274 275 268 265 250 236 225 223 220 210 216 209 208 209 208 209 211 203 206 207 204 208 206 212 209 212 210 207 212 209 207
69 279 277 273 278 271 270 279 274 269 273 258 267 271 264 268 273 269 270 270 265 265 267 238 232 229 228 222 215 216 213 213 210 211 211 211 208 212 209 207 207 209 210 210 211 210 209 205 209
290 280 270 246 210 287 308 269 252 261 262 269 273 266 255 266 267 264 265 265 265 264 268 260 232 232 229 233 221 221 221 214 215 213 215 217 215 215 214 215 211 214 212 206 206 207 205 207 212
261 246 254 146 257 271 244 282 278 290 257 273 276 278 268 264 262 262 261 260 260 258 259 261 259 239 234 226 223 221 223 220 219 217 217 221 220 216 223 216 214 211 208 212 212 213 207 210 214
199 301 304 301 200 274 267 291 276 269 263 270 274 271 267 266 261 259 260 258 255 256 258 256 257 251 231 230 226 225 225 223 221 219 217 222 223 223 224 216 214 210 207 208 210 212 207 211 211
313 303 302 297 305 297 292 284 287 289 273 267 265 264 264 264 262 260 258 259 258 257 253 254 256 257 230 227 231 225 224 223 220 220 217 219 224 230 231 221 218 218 217 210 207 212 215 211 215
292 288 293 297 314 298 298 292 294 291 278 269 264 257 257 260 265 264 258 258 260 257 252 244 248 247 240 226 225 225 223 224 221 220 220 214 223 225 228 227 229 223 214 208 214 212 212 212 212
282 287 287 304 305 318 302 294 297 279 270 265 269 268 262 262 261 266 266 263 262 262 257 251 241 243 245 231 229 226 225 226 224 222 222 218 218 227 225 225 226 227 218 222 217 211 206 216 217
279 288 297 302 311 282 295 291 166 338 285 290 283 287 271 255 270 269 268 275 273 260 255 249 244 243 243 230 229 229 227 231 232 232 228 228 223 221 220 222 220 229 220 220 221 218 203 215 220
290 329 309 297 304 301 333 294 297 315 311 276 281 288 270 252 280 260 272 291 299 274 265 258 250 243 242 241 219 221 223 227 232 231 236 230 232 220 220 220 222 229 227 217 222 220 212 207 219
291 325 296 290 282 289 276 253 287 275 303 347 329 341 331 237 303 286 288 302 307 312 297 281 277 254 241 232 220 223 225 230 231 234 232 234 234 232 219 218 222 225 227 216 211 211 214 221 215
312 289 287 266 266 259 258 230 280 287 341 310 313 315 316 322 321 294 295 308 309 318 320 324 318 308 256 233 235 223 226 225 230 227 232 234 227 235 224 218 220 223 225 224 220 214 215 214 224
267 311 303 270 205 253 142 270 256 288 306 316 316 315 317 318 293 288 298 305 306 312 323 330 332 327 316 253 238 236 234 233 228 227 233 228 224 230 230 223 222 220 225 221 220 218 217 223 225
300 290 281 293 298 306 314 262 62 273 301 291 329 327 335 332 330 312 310 310 305 307 311 316 325 324 318 307 260 250 239 232 239 236 234 228 232 232 233 225 220 222 221 221 217 215 220 220 226
43 245 1 289 273 265 248 248 243 252 245 272 287 312 294 308 309 299 299 297 299 300 301 306 309 307 309 305 296 261 251 242 231 237 237 236 231 226 229 217 218 219 215 214 212 210 215 218 220
242 321 271 229 279 299 293 296 295 356 324 309 306 300 305 309 302 295 293 293 290 291 292 292 295 297 296 294 296 285 269 253 245 230 233 234 228 225 219 220 219 218 213 211 206 206 212 216 217
238 237 231 299 277 284 300 288 342 316 325 338 329 332 316 303 301 298 295 292 284 283 281 280 282 285 288 285 285 286 282 269 253 249 235 238 238 230 226 224 219 213 209 202 206 210 215 213 214
268 264 262 251 266 252 282 283 294 232 334 312 308 302 309 311 302 294 288 287 281 276 275 272 272 272 276 279 278 276 276 274 265 247 244 236 238 238 231 225 217 201 196 201 214 212 214 215 202